Wind_Speed
36 36 35 35 38 43 45 45 44 43 42 43 41 39 38 37 36 35 34 34 34 35 36 36 36 37 38 39 39 40 40 41 41 41 41 42 42 41 39 38 36 35 33 31 29 27 25 23 21 20 18 17 16 15 13 12 11 10 9 7 8 8 9 10 9 8 8 8 8 7 6 5 4 3 2 1 1 2 3 4 4 5 4 4 4 3 3 2
37 37 36 36 38 43 46 46 46 44 44 45 44 41 40 38 36 36 35 35 35 35 36 36 36 37 37 38 39 41 42 42 41 41 41 42 41 41 40 38 37 36 34 32 30 29 27 25 23 21 19 18 17 15 14 13 12 12 9 7 8 9 10 11 9 8 8 8 8 7 6 5 4 3 2 2 2 3 4 5 5 5 4 4 4 4 3 3
38 38 38 37 39 43 47 48 47 46 46 46 46 43 42 40 38 36 36 36 36 36 36 37 36 36 37 38 38 40 42 43 43 42 42 42 42 41 40 39 38 36 34 33 31 30 28 26 24 22 20 19 18 16 15 15 14 13 10 8 10 10 11 11 10 10 10 9 8 8 6 6 4 4 3 2 4 5 5 6 5 5 5 5 4 4 4 3
39 40 39 38 40 44 47 49 49 48 47 48 47 45 43 42 40 38 37 37 37 37 37 37 37 36 37 38 39 40 41 42 43 43 43 42 42 41 40 39 38 36 35 33 32 30 28 26 24 23 22 21 20 18 17 16 15 14 10 10 12 13 13 12 11 11 10 9 9 8 7 6 4 3 3 3 5 6 6 6 5 4 4 4 4 4 3 3
40 40 40 39 40 44 47 49 50 49 48 48 47 46 44 43 42 40 39 39 38 38 37 37 37 37 37 38 39 40 41 41 42 42 42 42 41 41 40 39 38 36 35 34 32 31 29 27 25 24 23 22 21 19 18 17 16 14 11 12 14 15 14 12 12 12 11 10 9 8 7 6 4 3 3 4 5 6 6 5 4 4 4 4 4 4 3 3
40 41 41 40 41 44 47 49 50 50 49 49 48 46 45 44 44 42 41 40 39 38 38 37 37 37 37 37 38 39 40 40 41 41 41 41 41 41 40 39 38 36 35 33 32 31 29 27 26 25 24 23 22 21 19 18 17 15 13 15 16 16 14 13 13 12 11 10 9 8 7 6 4 3 3 5 6 5 5 4 3 3 3 3 3 3 3 2
41 42 42 41 41 44 47 49 51 51 50 50 48 46 45 45 45 44 43 41 40 39 39 38 37 36 36 37 38 38 39 39 40 40 40 40 40 40 39 39 37 36 35 33 32 31 29 28 27 26 25 24 22 21 20 19 18 16 15 17 18 16 15 14 14 13 12 10 9 9 8 6 4 3 4 6 6 4 3 3 4 3 3 3 2 2 2 2
42 43 43 42 42 44 47 49 51 52 51 51 49 48 46 46 46 46 45 43 42 41 39 38 37 36 36 36 37 38 38 38 38 39 40 39 39 39 38 38 37 36 34 33 32 31 29 29 27 26 25 24 23 22 21 20 18 17 17 18 19 18 16 15 14 14 12 11 10 9 8 6 4 4 6 7 6 4 3 4 4 2 2 2 2 1 1 1
43 44 44 44 43 44 47 50 52 52 51 51 51 49 48 47 47 47 46 45 43 42 40 38 37 36 36 36 36 38 38 38 37 38 38 39 39 39 38 38 37 36 35 34 32 31 30 29 28 26 25 24 24 23 22 21 19 19 19 20 20 19 17 16 15 14 13 11 10 9 8 7 5 6 7 7 6 5 4 4 3 3 2 2 2 1 1 1
44 45 45 45 44 45 47 50 52 52 52 52 52 51 49 48 48 47 46 45 44 42 40 39 37 37 36 36 36 36 37 38 37 37 38 38 38 38 38 37 37 36 35 34 33 32 30 29 27 27 26 25 25 24 23 22 20 20 21 22 21 19 18 16 15 14 13 11 10 10 9 7 6 7 8 7 6 5 5 5 4 4 3 2 2 2 1 2
45 46 47 46 45 46 48 51 53 53 53 53 53 52 51 49 49 48 47 46 44 42 41 39 38 37 37 36 36 37 37 37 37 37 38 38 38 37 37 37 36 35 34 33 33 32 30 29 28 27 26 26 25 25 24 22 22 23 24 22 21 19 18 17 16 14 13 12 11 10 9 8 7 8 8 7 6 6 5 5 5 4 4 3 2 2 2 3
46 47 48 47 47 48 48 51 53 53 53 54 54 54 52 51 50 49 48 46 45 43 41 40 39 38 37 36 37 37 37 37 37 37 37 37 37 37 36 36 35 35 34 33 32 32 30 29 28 28 27 27 27 27 25 23 24 25 24 22 20 20 19 18 17 15 13 12 12 12 10 9 8 8 8 7 7 7 6 5 5 4 4 3 3 3 3 4
48 48 49 49 48 49 49 51 54 54 54 55 55 55 54 52 51 51 50 48 46 44 42 41 40 39 38 37 37 37 37 37 37 37 37 38 37 37 36 35 35 35 34 33 32 31 30 29 29 28 27 28 28 28 26 25 25 25 24 21 21 21 20 19 17 16 14 13 13 13 11 10 9 9 8 8 8 7 7 6 5 5 4 4 4 4 4 4
49 49 51 51 49 50 50 52 54 55 55 56 56 57 56 54 54 53 51 49 47 45 43 42 41 40 39 37 37 37 37 37 37 37 37 38 38 37 37 36 35 35 34 33 32 31 30 29 29 28 28 28 28 28 26 26 26 26 24 23 22 22 21 20 18 17 16 15 15 14 12 12 11 10 10 9 9 9 8 7 6 6 5 5 5 4 4 4
50 50 51 52 51 51 51 52 55 56 56 58 58 58 58 57 56 55 53 51 48 46 44 43 42 41 39 38 38 37 37 37 37 37 37 37 38 37 37 36 35 35 34 33 32 31 30 29 28 28 28 29 29 28 28 28 27 26 25 24 23 23 22 21 19 18 17 17 16 15 14 13 12 12 11 11 10 10 9 8 7 7 6 6 5 4 4 4
51 51 52 53 52 52 52 53 55 57 57 59 59 59 59 59 58 56 54 52 50 48 46 44 43 41 40 39 38 37 37 37 36 37 37 37 37 37 37 37 36 35 34 34 32 31 30 29 29 28 29 30 30 29 29 29 28 26 25 25 24 24 23 22 20 19 19 18 17 16 15 14 14 13 13 12 12 11 10 9 8 8 7 6 5 5 4 4
53 52 53 53 54 53 53 54 56 57 58 60 61 61 61 60 59 58 56 53 51 49 47 45 44 42 41 39 38 37 37 37 36 37 37 37 37 37 37 37 37 36 35 34 32 31 30 30 29 29 30 31 31 31 30 29 27 26 26 25 25 25 24 22 21 20 21 20 19 17 16 16 15 15 14 14 13 12 11 11 10 9 8 7 6 6 6 6
54 53 53 54 55 55 54 55 57 58 59 60 62 62 62 61 60 59 57 55 52 50 48 47 45 44 42 40 38 37 36 36 36 37 37 38 38 37 37 37 37 36 35 34 33 31 30 30 30 30 31 32 31 30 29 27 27 27 27 27 26 26 24 23 22 22 22 21 20 18 17 17 17 16 15 15 14 12 11 11 11 10 9 8 8 8 7 8
55 54 54 54 56 56 56 56 58 59 60 61 63 63 63 62 61 60 58 56 53 51 49 48 46 45 42 40 39 37 37 36 36 37 37 38 38 38 37 37 37 36 35 34 33 31 31 31 31 31 31 31 30 29 29 29 29 29 28 28 27 27 25 24 24 24 24 23 22 20 19 19 19 17 16 16 15 13 12 12 11 10 10 9 9 9 8 9
55 55 53 54 56 57 57 57 58 60 60 61 63 64 64 63 62 61 59 56 54 52 50 48 47 45 43 40 39 38 37 37 36 37 37 37 38 37 37 37 36 36 35 34 32 32 31 31 31 31 30 30 30 31 31 31 31 30 29 28 28 27 27 26 26 26 26 25 24 23 22 21 20 19 19 18 16 13 14 14 13 12 11 11 11 11 10 10
55 54 53 53 56 58 58 58 59 60 60 61 63 64 64 62 62 60 58 57 56 53 51 49 48 47 45 42 40 39 37 37 36 36 36 37 37 37 37 36 36 35 34 34 33 32 32 32 31 31 31 32 33 33 33 32 31 30 29 29 28 28 28 28 28 28 28 27 25 25 24 22 21 21 21 20 17 15 16 16 15 14 13 13 13 13 12 12
56 54 53 53 56 58 59 59 59 60 60 61 62 64 64 62 62 60 59 58 57 55 53 51 49 48 46 44 41 40 38 37 36 36 36 36 37 36 36 36 35 35 35 34 33 33 32 31 31 33 33 34 34 33 33 33 31 30 29 29 29 29 29 29 29 29 29 28 26 27 26 22 22 23 22 21 19 16 18 18 16 16 15 15 15 14 14 15
56 55 53 53 56 59 59 59 59 59 60 60 61 63 63 63 62 61 60 59 58 56 54 52 50 49 48 46 43 41 39 38 36 36 36 36 36 35 35 35 35 35 35 35 34 33 32 31 32 34 34 34 34 34 34 33 31 30 30 30 30 30 31 31 30 30 29 28 28 29 28 24 23 24 23 22 20 18 20 19 18 17 16 17 16 16 16 17
56 55 53 53 56 59 60 59 59 59 59 60 61 62 63 63 63 62 61 61 60 58 56 54 52 50 49 47 45 43 41 39 37 36 36 36 36 35 35 35 35 35 35 35 34 34 33 32 33 34 34 35 35 35 34 33 32 31 31 31 31 31 32 32 31 30 30 30 29 29 30 25 24 25 24 23 22 21 22 21 19 19 18 18 18 18 19 19
56 55 53 54 56 59 60 60 59 59 59 60 61 62 63 63 63 62 62 62 62 60 59 57 54 52 51 49 47 45 43 41 39 38 37 38 37 36 36 36 36 36 35 35 35 35 34 34 34 33 34 35 35 35 35 34 33 32 32 32 32 32 33 33 32 32 32 32 30 30 31 27 25 26 25 24 24 24 24 23 21 20 20 20 19 21 21 21
56 55 53 54 56 59 61 60 60 60 60 60 61 62 62 63 63 63 63 64 64 63 61 58 56 54 52 51 50 48 46 44 42 40 39 39 39 38 38 38 37 36 36 36 36 35 35 35 34 34 34 34 35 35 35 34 34 33 33 32 33 33 34 35 34 34 34 33 31 31 32 29 25 26 25 24 25 26 25 23 22 21 22 22 21 23 24 24
56 56 54 55 56 59 60 60 60 60 60 61 61 62 62 62 63 63 63 65 66 64 62 60 57 55 53 53 52 50 48 46 44 43 42 41 40 40 39 39 38 37 37 36 36 36 34 34 34 34 34 34 34 34 35 35 35 35 34 34 34 34 35 36 36 36 36 34 33 32 33 32 26 24 24 26 27 28 26 24 23 22 23 24 24 25 26 27
55 55 55 54 56 58 60 60 60 60 60 61 62 62 62 62 63 63 63 66 68 65 63 62 59 56 55 54 53 52 50 47 46 46 44 43 42 41 41 39 38 38 38 37 36 35 34 34 34 34 34 34 33 34 34 35 36 36 35 35 35 36 36 36 37 37 37 37 35 32 33 35 30 23 23 27 28 28 26 25 25 24 24 25 25 27 28 29
55 54 54 54 55 57 59 59 59 59 61 61 61 62 62 62 63 63 64 68 69 66 63 62 60 59 57 55 54 53 52 50 49 47 46 45 45 43 42 41 40 40 39 38 37 36 36 36 36 36 35 35 34 34 35 36 37 37 37 37 37 38 38 38 38 38 39 39 36 33 34 36 34 27 25 27 27 27 26 26 26 26 26 26 27 29 31 31
54 54 54 53 53 55 58 59 59 60 61 61 61 61 62 62 63 64 66 69 69 66 64 63 62 60 59 57 55 54 53 53 51 50 50 49 47 45 44 43 42 42 41 40 39 39 37 37 37 37 36 35 35 35 35 36 37 37 38 38 38 39 39 39 39 39 41 40 36 36 35 35 37 34 28 27 27 26 27 28 27 27 28 28 29 31 32 32
53 53 54 53 53 53 55 57 58 59 60 61 61 61 62 62 63 65 68 68 67 67 66 65 63 61 59 58 56 54 54 54 54 53 53 51 50 49 48 47 46 45 44 42 41 40 38 38 37 36 35 34 34 34 35 36 37 38 38 38 38 39 39 40 40 41 42 41 38 39 37 36 39 36 31 30 28 28 30 30 29 30 31 31 32 33 33 33
52 52 52 53 54 54 54 55 57 58 60 60 60 61 62 63 65 67 67 65 66 69 67 65 64 62 60 59 58 56 55 55 54 54 54 53 52 50 49 48 46 45 44 43 41 40 39 38 37 37 36 36 36 36 37 37 38 38 38 38 38 38 39 40 41 42 43 42 42 42 40 38 38 36 36 36 32 30 31 32 31 32 34 34 34 34 34 35
52 51 51 51 52 54 55 55 56 57 58 59 60 60 61 64 66 66 65 64 67 68 66 65 64 62 61 61 60 59 57 56 55 54 54 55 54 52 51 49 47 46 44 43 42 41 41 40 39 39 39 38 38 37 37 37 37 37 37 37 37 37 39 40 41 42 42 42 44 44 44 42 37 35 37 38 36 34 34 36 37 37 38 38 37 36 36 37
52 52 52 51 52 53 54 55 56 56 58 59 60 60 62 65 65 63 63 65 67 67 65 65 65 64 63 62 61 59 58 58 57 56 55 55 55 54 53 52 50 49 47 46 46 45 44 43 42 41 40 39 38 38 38 37 38 38 38 39 39 38 39 40 41 42 41 42 44 45 45 43 38 37 37 38 39 39 38 40 41 42 42 40 38 37 37 39
53 53 53 54 54 53 52 55 57 57 59 60 60 61 63 65 63 62 64 65 65 65 64 64 64 64 64 63 62 61 59 59 58 58 58 57 56 55 54 52 51 50 49 48 48 47 46 45 43 42 42 41 41 41 41 41 41 41 41 41 40 38 39 40 41 41 41 43 44 44 45 42 39 39 38 38 39 40 41 41 42 43 44 43 40 39 39 40
52 53 54 54 54 54 54 54 56 59 60 61 62 64 64 62 61 62 64 64 64 64 65 64 64 64 64 64 64 63 62 61 60 59 59 58 58 57 55 54 52 51 50 49 49 49 48 46 45 44 44 43 44 44 43 43 43 42 42 41 39 39 40 41 41 41 42 44 44 43 44 41 40 40 39 38 39 40 42 42 42 43 45 46 44 42 41 40
49 51 52 52 51 54 54 54 55 58 60 62 63 64 63 62 62 63 62 62 62 63 65 64 64 64 64 64 64 64 63 63 63 62 61 60 60 58 56 56 55 53 52 50 50 50 49 48 47 46 46 45 45 45 44 43 43 43 43 41 40 42 42 42 43 43 44 45 44 42 42 39 39 41 39 38 40 41 41 42 43 44 46 47 47 45 43 41
48 50 50 50 51 53 54 56 57 58 59 61 60 60 60 61 63 62 61 61 62 63 64 64 64 63 63 63 62 63 63 63 63 63 62 62 61 58 56 56 55 54 53 52 52 52 51 51 51 50 49 48 47 47 47 46 45 46 45 44 45 46 46 45 45 45 45 46 45 43 42 41 40 40 39 39 40 41 42 43 44 45 46 48 48 47 45 43
51 52 51 49 52 54 54 56 58 58 61 60 56 55 57 58 59 60 60 60 61 61 62 63 63 62 62 61 60 60 61 61 61 61 61 61 60 58 56 55 54 53 53 53 53 53 53 53 54 53 52 51 51 51 50 48 48 48 47 47 48 48 48 47 47 47 47 47 48 46 46 45 41 39 40 40 40 42 44 44 45 47 48 49 48 46 46 45
53 53 51 49 50 52 53 55 57 59 60 58 54 54 54 53 55 56 57 58 59 60 60 60 60 60 60 60 59 59 58 58 58 59 59 58 57 57 55 54 53 52 52 52 52 52 53 53 54 54 54 53 53 52 50 49 49 48 48 48 47 47 48 49 49 49 49 49 50 51 51 49 43 40 41 42 42 43 46 47 48 49 51 50 48 47 47 46
56 55 54 51 50 52 52 54 57 58 58 55 54 53 53 52 51 51 53 54 56 58 58 58 58 57 57 57 58 57 57 57 57 57 58 57 56 56 55 53 52 52 52 54 54 53 54 55 56 56 57 56 53 51 50 49 49 49 49 49 48 48 49 51 52 52 52 52 53 54 56 53 46 44 44 45 46 47 48 49 50 52 53 52 50 48 48 48
58 59 58 55 54 54 54 56 57 58 57 56 54 53 52 52 51 51 51 51 51 53 55 56 57 56 55 54 54 55 55 56 56 57 57 57 56 55 53 53 52 52 52 53 53 52 51 53 55 56 57 56 54 54 53 53 53 52 53 52 52 53 54 55 57 56 54 55 54 56 59 56 49 47 46 47 49 50 50 52 53 54 54 53 51 50 49 49
55 60 60 60 58 54 53 57 58 58 58 57 56 54 53 53 53 52 53 51 50 50 51 53 54 55 55 54 54 54 54 54 54 54 54 54 54 53 52 53 53 53 54 54 54 53 53 55 58 59 59 58 58 58 57 57 57 57 57 56 56 57 58 58 59 57 58 58 57 59 61 57 51 49 49 50 53 54 54 55 54 54 54 53 52 51 51 52
50 55 58 59 59 53 50 54 57 58 58 59 59 58 56 55 54 52 52 52 52 52 52 52 53 53 53 53 53 54 54 54 55 54 53 53 53 51 52 53 53 53 54 55 55 55 56 58 59 61 62 63 63 63 63 63 63 63 62 60 60 60 60 61 61 60 62 61 60 63 64 57 52 51 52 54 56 57 57 56 55 55 53 51 51 52 54 55
48 52 55 56 57 54 51 52 55 57 58 59 60 60 59 58 57 55 53 52 53 53 53 54 54 54 54 54 53 53 54 55 55 55 55 55 54 53 53 54 54 54 53 53 53 53 54 56 57 59 63 66 67 68 66 64 63 63 62 61 61 61 61 62 61 62 64 63 62 66 65 58 54 54 55 57 58 58 59 59 57 55 53 52 52 53 54 55
45 49 52 53 54 55 53 51 53 55 56 57 59 61 61 59 57 58 57 55 53 52 52 53 53 53 54 54 53 53 53 54 54 55 55 56 57 57 56 56 56 56 54 54 54 54 55 57 58 60 63 66 68 66 62 58 57 58 59 58 58 58 58 58 59 62 64 63 64 67 64 60 58 58 58 58 58 59 59 58 56 55 55 55 55 55 55 55
44 46 48 49 51 53 54 52 52 52 52 54 57 59 60 59 58 59 60 58 56 54 54 54 54 53 53 51 51 51 51 51 51 52 53 54 55 56 57 57 57 57 56 56 56 56 57 59 60 61 63 64 65 64 62 60 59 60 60 60 59 58 58 59 62 65 64 65 68 66 64 64 62 59 59 59 59 60 59 57 56 57 59 59 57 55 54 54
43 44 45 47 48 50 52 53 52 51 51 52 54 56 58 59 58 58 58 58 58 57 56 56 56 56 54 53 53 53 52 52 51 50 51 52 53 54 55 55 56 56 56 56 57 57 59 61 61 61 62 62 62 62 63 63 62 62 61 61 60 60 60 62 65 65 64 67 68 64 63 65 62 58 58 58 58 59 58 57 59 59 59 58 56 55 54 54
44 45 45 46 47 48 50 51 52 52 52 52 53 54 56 57 57 56 56 57 58 58 58 57 55 55 55 56 57 56 56 54 52 50 50 50 51 52 52 52 53 53 54 55 56 57 58 60 59 60 62 62 62 63 64 64 64 64 63 63 62 62 63 64 66 66 65 66 67 63 64 66 62 59 58 56 56 57 57 58 59 58 58 57 57 58 58 58
46 46 47 47 47 47 48 50 51 52 53 54 54 53 54 55 56 56 57 58 57 57 58 58 56 56 56 57 58 58 57 55 53 52 51 51 52 52 52 53 53 52 53 54 55 56 57 57 57 58 60 62 62 63 65 66 67 67 67 66 65 65 66 67 68 67 66 67 66 64 66 66 61 58 57 55 55 57 57 58 58 58 58 58 59 60 61 62
48 48 48 48 48 49 49 49 50 51 53 54 55 53 53 54 55 56 57 58 57 57 56 56 57 59 60 61 61 58 55 54 54 53 52 53 54 55 56 56 56 55 56 56 57 58 57 57 56 56 58 60 60 61 63 64 64 67 69 70 69 70 71 70 69 68 68 68 66 66 68 66 61 58 56 55 58 59 59 59 59 59 59 60 62 63 63 64
49 49 50 50 51 51 51 50 51 52 52 52 53 53 54 55 56 57 57 57 56 56 56 56 59 64 66 65 62 58 54 53 53 54 55 55 55 56 57 57 57 57 58 59 60 60 60 59 57 57 59 58 56 57 59 59 62 65 67 68 68 68 69 68 68 68 68 68 68 68 68 64 61 61 60 60 60 61 61 61 61 61 61 62 63 63 64 66
Wind_Direction
209 209 211 210 205 202 201 201 199 199 198 197 196 194 192 191 188 187 189 192 193 192 192 192 193 193 193 192 191 190 190 189 187 186 186 186 185 184 184 184 185 185 186 186 186 188 189 191 193 195 198 199 202 205 206 208 213 218 220 211 199 194 189 195 202 202 198 187 181 180 179 185 186 191 194 202 217 217 247 260 267 277 284 279 278 285 299 307
207 208 208 209 205 201 201 200 199 199 198 197 197 196 195 194 192 190 190 192 194 194 194 193 193 194 195 195 193 191 191 191 190 189 189 189 187 187 187 187 188 188 189 189 189 191 192 194 197 200 204 207 210 212 213 216 219 224 222 212 202 199 200 201 202 202 200 194 191 191 192 194 190 193 201 218 243 242 251 257 260 272 278 274 279 287 290 298
207 207 207 207 204 201 201 201 199 199 198 198 198 198 198 196 193 192 192 193 194 194 195 194 193 194 195 196 195 194 192 192 191 191 192 191 190 189 190 190 191 191 192 193 193 194 195 197 200 202 207 213 218 218 220 222 224 226 222 211 205 203 207 204 199 200 200 199 201 199 198 204 199 197 215 228 243 248 251 255 258 262 266 268 272 274 277 293
207 207 206 206 203 201 200 200 200 199 199 198 200 201 200 197 194 193 194 194 194 194 194 194 194 194 195 195 196 195 194 193 192 192 193 193 192 192 192 193 194 194 195 196 197 198 199 201 203 206 210 214 220 222 224 226 227 229 221 210 207 207 209 204 201 203 199 199 209 210 206 210 208 211 237 245 243 245 245 247 251 252 256 263 264 265 276 294
208 207 206 205 203 201 199 200 200 199 199 199 200 202 201 198 194 193 194 195 194 193 193 193 193 193 194 195 196 196 195 195 194 194 194 194 194 195 195 195 196 197 198 200 201 202 203 204 207 210 214 217 221 224 227 229 229 229 220 210 211 212 211 205 206 207 201 201 212 221 220 220 220 230 249 243 234 237 241 241 241 241 243 248 253 264 279 291
210 209 207 206 204 201 199 199 200 199 199 199 200 202 202 199 195 192 194 195 194 193 193 192 193 193 193 194 196 196 196 195 195 195 196 196 196 197 197 198 199 200 201 202 204 206 206 208 210 213 217 221 224 226 227 228 229 227 218 213 216 216 213 206 206 211 207 205 211 223 232 235 236 236 221 216 222 228 238 235 221 223 230 243 250 261 277 292
211 209 208 206 204 202 200 199 199 199 199 199 200 202 202 200 196 192 193 194 194 193 192 192 193 193 193 193 195 197 197 195 195 197 197 197 198 199 200 200 201 202 203 205 207 209 210 212 215 217 220 223 226 228 229 229 229 225 218 217 220 217 212 207 205 209 212 211 215 225 237 243 238 214 185 196 215 224 234 235 224 216 214 240 254 254 271 291
211 210 209 207 204 203 201 199 199 199 198 198 199 201 202 201 197 194 193 194 194 194 193 193 194 195 195 194 195 196 197 197 196 197 198 198 199 200 202 202 203 204 205 207 209 211 213 215 218 221 223 224 226 228 229 229 226 222 217 217 220 217 213 211 206 207 212 216 222 231 239 238 222 187 175 191 209 208 214 238 249 246 217 223 241 247 265 296
212 210 210 208 205 204 202 199 199 199 198 197 198 200 202 202 199 196 194 194 195 195 195 196 197 197 197 197 196 196 197 197 197 197 198 199 200 201 202 203 204 205 207 209 211 213 215 217 219 221 223 224 226 227 227 226 222 218 216 216 219 218 215 214 210 209 212 219 227 235 235 225 202 178 177 190 202 193 196 224 244 252 246 225 228 241 264 301
213 211 211 209 206 204 202 200 199 199 198 197 197 198 201 202 200 198 196 196 197 197 197 198 200 200 200 199 199 199 198 197 198 198 199 199 200 201 202 204 204 206 207 209 211 213 215 217 219 221 222 222 224 226 225 223 218 217 217 216 218 218 216 215 214 213 215 222 230 233 228 216 194 178 183 190 195 196 195 208 220 229 240 238 240 259 282 311
213 211 211 210 206 204 203 200 199 199 198 197 196 198 200 202 200 198 197 197 198 199 199 201 203 202 202 202 202 202 200 199 199 199 200 200 201 202 203 204 205 206 207 209 211 214 215 217 218 221 222 221 223 224 222 219 215 216 217 216 216 217 216 214 215 216 219 224 228 228 222 214 198 187 193 192 191 200 198 203 215 224 235 242 253 269 291 316
212 211 211 210 207 205 204 201 199 199 199 197 196 197 199 200 199 198 198 198 200 201 202 203 205 205 204 203 204 203 201 201 201 201 201 201 201 202 203 204 205 206 207 209 211 214 215 217 218 219 220 220 221 222 219 216 214 216 218 215 214 216 215 214 215 216 221 223 223 223 218 214 206 198 201 196 192 200 202 204 213 225 239 252 265 281 299 319
212 211 211 210 207 206 205 202 200 200 199 197 197 197 198 199 198 199 199 200 201 202 203 204 205 206 205 205 205 204 203 203 203 203 203 203 203 203 204 205 206 207 208 210 212 214 216 217 218 218 218 219 221 221 218 214 214 216 218 215 214 216 215 214 215 217 222 221 218 218 216 215 212 206 204 201 199 202 206 212 218 227 244 261 274 290 307 325
214 211 212 211 208 206 205 203 201 200 199 198 197 197 197 198 199 200 201 201 202 203 205 205 205 205 206 206 206 205 205 204 204 205 205 205 205 205 205 206 207 208 209 211 212 214 216 217 218 216 216 218 219 220 216 213 213 215 216 215 214 216 215 215 216 219 221 218 216 215 214 216 215 211 208 206 207 207 210 221 229 233 242 256 270 287 304 324
214 212 212 211 208 206 206 204 202 200 200 199 198 197 197 198 199 201 202 202 203 204 205 206 206 205 205 207 207 206 206 206 206 207 207 207 207 207 207 207 209 209 211 212 213 215 216 217 216 214 214 215 217 217 214 213 213 214 215 216 216 216 216 216 217 220 221 218 216 214 213 217 216 215 214 211 212 212 217 228 238 244 246 252 260 272 291 318
214 212 212 212 209 206 207 205 203 201 201 200 199 198 198 199 200 202 203 203 203 204 205 206 206 206 206 208 208 207 208 208 207 208 208 208 208 208 209 209 210 210 211 213 213 215 217 217 215 213 213 214 215 214 213 213 213 214 215 217 218 218 217 218 219 221 222 219 216 214 213 218 219 217 218 217 216 216 221 229 236 243 249 253 256 264 282 306
213 212 212 212 210 207 207 206 204 202 201 201 200 199 199 199 201 203 203 204 204 205 206 207 207 207 208 208 208 208 209 210 209 209 209 209 209 209 209 210 211 212 212 213 214 216 217 218 215 213 213 214 215 214 214 214 214 216 217 218 219 219 218 219 221 223 224 221 219 215 213 219 224 223 224 225 225 222 223 226 229 233 238 244 254 268 284 299
212 211 212 212 210 208 207 207 205 203 202 202 201 200 200 201 202 203 204 205 205 205 207 208 208 208 208 208 209 210 210 211 210 209 209 209 210 210 210 210 211 211 212 213 215 216 218 218 216 214 214 216 216 216 216 215 215 217 219 219 220 220 219 220 222 224 225 224 222 219 215 220 225 227 229 231 231 228 228 230 226 225 230 237 249 268 285 298
211 210 211 211 210 208 208 208 207 204 203 203 202 201 201 202 203 204 205 205 206 206 207 208 208 209 209 209 211 211 211 211 211 210 210 209 209 209 209 209 210 211 212 213 215 217 218 219 218 217 217 218 218 218 218 217 217 218 220 220 220 220 220 222 224 225 226 225 223 222 217 219 224 226 230 234 233 228 229 233 230 226 231 238 249 263 276 291
211 210 210 211 210 208 208 208 208 206 204 203 203 202 202 203 205 205 205 206 207 208 208 209 210 210 210 211 212 212 211 212 211 211 211 210 209 209 209 209 210 211 212 214 216 217 219 220 220 218 218 218 218 218 218 218 218 219 221 223 222 221 221 223 225 225 226 226 225 225 221 219 224 227 230 233 233 227 226 232 233 234 236 242 251 260 266 278
210 210 210 210 210 208 208 209 208 207 205 204 204 204 204 205 206 207 207 208 208 208 209 210 211 212 211 212 212 212 212 212 212 212 212 212 211 210 210 210 211 213 214 215 217 218 219 220 219 218 218 218 219 219 220 220 221 221 223 225 225 223 222 224 226 226 227 227 227 230 228 221 223 228 231 233 230 225 228 229 231 236 241 248 255 262 269 276
209 209 209 209 209 208 208 209 209 208 206 205 204 204 205 206 208 208 209 210 210 210 211 211 212 213 213 213 213 213 213 213 213 213 213 213 213 212 212 212 213 214 215 217 218 220 221 221 220 220 220 220 221 221 222 223 223 224 225 227 227 226 225 226 228 228 229 230 229 233 233 225 224 228 229 234 231 227 232 232 232 239 246 253 259 266 274 280
208 209 208 208 209 208 208 209 209 209 207 205 204 205 206 207 208 208 209 211 212 212 213 213 213 213 213 213 214 214 214 214 214 214 214 214 214 214 214 214 216 216 218 219 220 221 222 222 222 222 222 223 223 223 224 225 225 226 227 228 228 228 229 229 230 231 232 234 233 236 237 228 226 229 227 232 232 228 235 237 237 242 248 255 260 267 273 278
209 209 208 208 208 207 208 209 209 209 208 206 205 205 206 208 209 209 210 211 212 212 213 214 214 214 214 214 214 215 215 214 215 215 215 215 215 215 215 216 217 218 219 220 221 222 223 223 223 224 224 225 226 226 226 227 228 228 229 229 229 229 231 232 233 234 234 236 237 239 241 232 226 230 229 231 233 229 234 239 241 245 250 256 263 268 271 276
209 209 207 207 208 207 208 209 209 209 209 208 206 206 207 208 209 210 211 212 213 213 213 214 214 215 215 215 214 215 215 215 216 216 215 216 217 216 217 217 218 219 220 221 222 223 224 226 226 226 226 227 228 229 229 230 230 231 231 231 231 231 233 234 235 236 237 238 239 242 245 237 226 230 231 231 234 233 234 239 243 249 254 259 264 268 271 275
209 208 207 207 207 207 207 208 209 209 209 209 208 207 207 208 209 210 211 213 214 213 214 214 214 214 215 216 216 216 216 216 217 218 217 218 218 218 219 219 220 220 221 222 224 224 226 227 228 229 229 229 230 231 232 233 233 234 234 234 234 233 234 236 236 238 239 241 242 244 248 243 228 226 232 232 234 237 237 240 244 251 257 261 263 267 271 275
208 207 207 207 207 207 207 209 209 209 209 209 209 208 208 209 210 210 212 214 215 214 215 215 215 215 216 216 217 217 218 218 219 220 219 220 220 221 221 221 222 222 223 224 225 226 227 229 231 232 232 233 233 234 235 236 236 236 236 237 237 237 237 238 239 240 241 242 243 244 250 251 235 219 227 234 235 239 240 242 246 250 256 261 264 268 272 275
208 207 208 207 207 207 207 209 210 210 210 210 209 209 210 210 210 211 212 215 215 214 215 216 216 216 217 218 217 218 219 219 221 222 222 223 222 222 223 223 224 225 225 225 226 227 228 230 232 232 233 234 235 236 237 237 238 238 239 239 240 240 240 241 242 243 244 244 244 245 250 255 246 225 225 231 234 240 244 246 248 250 254 259 263 267 270 274
209 208 208 208 208 208 208 209 210 211 211 211 211 211 211 211 212 212 213 215 216 215 216 217 217 218 219 219 219 219 220 220 221 222 223 224 225 225 225 225 226 227 226 226 226 226 227 229 231 232 233 234 234 236 237 239 239 239 240 241 241 242 242 243 244 245 247 247 246 246 248 255 255 243 233 233 235 240 244 246 249 252 254 256 260 264 269 273
209 209 208 209 210 210 210 210 211 212 212 212 212 212 213 213 214 214 214 215 216 216 217 218 219 219 221 221 221 221 221 222 222 223 224 224 225 225 226 227 227 228 228 228 228 228 228 230 232 233 235 236 237 238 240 242 243 242 242 243 243 244 244 245 246 247 249 248 248 249 249 254 257 252 244 242 241 242 246 248 250 253 254 256 258 261 266 271
209 209 209 210 209 210 210 210 211 212 213 213 213 214 214 214 215 217 216 215 217 218 218 219 220 221 222 224 225 224 224 224 224 225 226 226 227 227 227 228 228 229 229 229 229 230 230 232 234 236 237 239 240 241 242 244 245 245 245 245 246 246 247 247 248 249 250 250 251 252 251 252 254 256 257 255 251 250 253 254 254 256 257 257 258 261 265 269
211 210 211 210 210 209 209 209 211 212 214 214 214 215 215 216 216 217 215 214 218 219 218 220 221 222 223 224 226 226 226 227 227 228 229 229 229 230 231 232 232 233 233 233 234 234 234 235 236 237 238 239 240 241 242 243 245 246 247 248 248 249 249 249 249 250 250 252 253 255 255 252 251 257 263 264 263 262 263 263 262 261 262 262 263 265 268 270
213 212 212 213 213 212 211 210 211 212 214 214 215 215 216 217 218 218 216 215 219 221 219 221 222 223 224 225 226 227 227 228 228 229 231 231 232 232 232 233 234 235 236 237 238 238 237 237 236 237 238 239 240 241 243 245 246 248 249 250 250 250 251 251 251 251 252 253 254 255 257 255 252 255 261 266 270 270 271 272 270 268 268 268 270 271 272 272
214 214 213 213 214 215 214 213 212 212 214 215 216 216 217 219 220 219 218 219 221 222 221 221 223 223 224 225 227 228 229 229 229 229 230 232 233 233 234 234 235 236 236 237 238 238 238 238 237 238 239 240 242 243 244 244 245 246 247 248 249 251 253 254 253 253 253 254 254 255 256 257 257 259 262 266 270 271 270 271 272 273 273 273 274 275 275 274
216 217 217 216 216 216 216 216 215 214 214 215 216 218 219 221 221 220 221 221 222 223 223 223 224 224 225 225 226 228 229 230 231 231 231 232 233 234 235 236 237 238 239 240 241 242 242 241 241 241 241 241 242 242 242 243 244 245 247 249 252 255 256 256 256 256 255 255 254 255 256 258 260 261 262 265 267 269 269 270 272 275 277 277 276 276 276 276
216 217 219 219 218 218 217 217 216 216 216 216 217 220 222 223 222 222 223 223 223 224 225 225 225 225 225 226 227 228 229 230 231 231 232 233 234 235 235 236 237 238 240 242 243 245 246 246 245 245 245 244 244 244 244 244 246 247 249 252 255 255 254 255 257 257 256 256 255 255 257 258 261 262 263 264 265 267 270 272 274 275 277 279 279 278 278 277
216 217 218 219 219 219 219 219 218 218 217 218 219 221 223 222 222 222 223 224 224 224 226 226 226 227 227 227 228 229 230 231 231 232 232 233 234 235 236 238 239 239 240 241 242 243 245 245 245 244 244 245 245 245 245 245 246 248 250 252 253 252 252 253 255 256 256 258 258 258 259 260 260 261 262 263 264 266 268 271 273 275 277 280 281 281 280 279
218 219 221 222 222 222 221 221 221 220 219 220 221 222 222 222 222 222 222 223 224 224 226 227 227 228 229 230 230 231 231 232 233 234 234 235 235 236 237 239 241 242 243 243 243 243 244 244 245 244 243 244 244 244 245 246 248 250 251 251 250 251 253 253 254 256 258 261 261 260 260 258 257 259 262 262 264 266 267 268 270 273 275 277 279 281 282 283
218 217 220 223 224 225 226 225 224 223 222 222 222 221 221 222 223 223 222 223 223 224 226 227 227 227 229 230 231 232 233 234 235 236 237 237 238 238 239 241 242 243 244 244 245 245 245 245 246 246 245 245 245 247 249 252 253 253 253 252 251 253 255 255 256 258 259 261 262 262 259 257 255 257 261 262 263 265 267 268 269 271 272 273 275 277 280 283
215 214 214 215 217 222 226 226 224 224 224 224 222 223 223 223 224 224 224 224 225 225 226 228 229 228 228 229 230 231 232 233 235 236 237 238 239 239 240 242 243 244 245 245 244 244 245 245 246 247 247 247 248 251 253 254 254 253 253 253 253 254 256 257 257 258 259 260 262 262 260 258 257 258 259 262 263 264 266 268 269 270 271 272 274 276 279 281
210 211 210 209 210 215 221 223 220 221 224 225 223 223 223 223 225 226 226 226 226 227 228 229 230 230 229 229 230 231 232 232 233 234 236 237 238 239 239 241 242 243 243 243 244 245 247 247 248 248 248 249 251 251 251 250 250 251 251 252 253 254 255 255 256 256 257 257 259 260 261 261 260 259 260 262 263 264 265 267 268 269 271 272 275 277 279 280
202 206 210 211 210 212 217 220 219 219 222 224 224 223 223 223 223 225 226 226 226 227 228 230 231 231 230 230 231 232 232 233 233 234 235 236 237 238 238 238 238 238 239 241 243 245 246 247 248 248 249 250 250 249 248 248 249 249 249 251 252 253 254 255 257 257 257 256 257 259 261 262 262 262 263 264 265 266 265 266 267 268 271 273 275 277 278 278
198 200 204 207 207 207 211 215 218 220 221 223 225 225 224 224 222 223 224 225 225 226 228 230 231 232 232 231 231 232 233 234 234 234 235 236 236 236 237 236 236 236 237 238 240 241 241 242 244 246 247 247 247 246 246 247 247 248 250 252 252 253 255 255 255 256 254 255 257 258 260 263 265 266 267 267 267 266 266 267 269 270 272 274 276 276 276 276
206 201 199 201 201 202 206 211 217 221 221 222 224 226 227 226 225 224 223 224 224 225 226 228 229 231 231 231 231 231 232 234 235 234 234 234 234 234 235 236 236 236 237 239 240 240 240 241 242 244 244 244 244 245 247 249 250 251 252 252 251 252 252 251 251 252 252 256 259 259 261 265 267 267 267 267 267 268 269 269 270 271 272 272 273 274 274 274
218 211 206 205 204 203 202 205 212 219 222 222 222 225 228 228 227 227 226 226 225 225 226 227 229 230 230 230 230 230 231 232 234 234 234 234 234 233 234 235 236 236 236 237 238 238 239 240 241 242 243 245 247 250 254 256 256 254 253 253 253 252 250 250 251 251 253 258 259 260 263 266 266 265 265 266 267 268 269 269 269 270 271 271 271 271 271 272
225 221 218 216 214 210 206 204 205 212 219 221 221 223 227 228 228 228 228 229 229 229 229 229 230 230 231 231 230 230 231 231 232 233 233 234 233 233 233 234 235 236 235 235 236 237 238 239 240 241 243 246 248 250 252 252 251 250 250 251 251 251 250 250 249 250 254 258 258 259 263 264 262 262 262 262 264 265 267 269 270 272 272 271 270 270 270 272
229 227 226 226 224 220 216 211 207 207 212 217 220 222 225 227 227 227 228 230 230 231 231 231 231 231 232 234 233 233 232 232 232 233 233 233 233 233 233 233 234 235 235 235 236 236 238 239 240 242 244 246 248 248 248 247 247 247 248 247 247 247 248 248 248 251 255 255 255 258 261 261 261 261 261 262 263 263 265 267 269 270 271 271 272 272 273 273
233 231 231 231 230 227 223 220 217 214 212 213 216 219 223 225 225 226 227 228 230 231 232 231 232 233 235 236 237 236 235 234 234 233 234 234 234 234 234 235 235 236 236 237 238 239 240 241 241 243 244 245 246 247 248 249 249 249 249 249 248 248 248 249 252 254 255 254 256 260 260 260 261 261 260 261 262 263 265 266 267 268 270 271 272 272 271 270
234 234 234 234 233 231 229 226 225 224 221 218 216 215 218 222 224 226 227 228 228 228 230 231 233 234 236 237 239 239 238 238 236 235 236 236 236 236 236 236 236 237 238 239 241 241 242 243 242 244 246 245 245 246 248 249 250 250 249 249 249 249 250 252 254 256 255 255 257 259 258 258 260 260 260 261 263 264 265 266 267 268 269 270 270 270 270 270
233 233 234 235 235 234 232 231 229 228 228 227 223 217 216 217 221 224 227 229 229 228 228 230 232 234 236 237 239 241 242 243 242 239 238 239 238 237 237 237 237 237 238 240 242 244 245 245 244 245 247 247 246 247 249 249 250 251 250 250 250 251 252 253 254 255 255 256 258 259 259 260 261 261 263 263 263 263 264 264 265 266 267 267 267 268 270 271
231 232 233 234 235 235 234 233 232 231 230 230 228 225 223 220 219 221 223 225 229 230 229 229 231 233 235 236 238 241 245 247 247 246 244 243 242 241 240 240 239 239 239 240 242 245 246 246 245 246 248 247 246 247 249 250 251 251 251 252 253 253 254 255 256 257 258 259 261 261 261 262 264 264 264 263 262 261 261 262 262 263 264 265 266 268 270 272
231 231 232 233 233 234 234 234 234 233 231 230 230 230 229 227 225 225 223 221 223 226 228 228 230 232 234 235 236 239 242 242 243 244 244 244 244 243 244 244 243 242 243 242 243 244 246 247 247 247 249 249 248 249 251 252 251 250 251 254 256 257 258 258 259 259 260 261 262 262 263 265 265 264 262 260 260 261 261 262 263 263 264 265 267 269 270 272
Height
5735 5738 5742 5745 5748 5752 5756 5760 5763 5766 5770 5774 5777 5779 5782 5785 5787 5789 5792 5796 5799 5802 5804 5807 5809 5812 5814 5816 5818 5821 5824 5827 5829 5831 5833 5835 5838 5841 5843 5845 5847 5850 5852 5853 5855 5857 5859 5861 5863 5864 5865 5867 5868 5870 5871 5872 5873 5874 5876 5877 5878 5879 5879 5880 5881 5881 5882 5882 5882 5882 5883 5884 5885 5886 5886 5886 5886 5887 5886 5886 5886 5886 5887 5887 5887 5887 5887 5887
5732 5735 5739 5742 5746 5749 5753 5757 5760 5764 5768 5772 5775 5778 5781 5783 5786 5788 5791 5794 5798 5801 5803 5806 5808 5810 5813 5815 5817 5819 5822 5825 5828 5830 5832 5834 5837 5839 5842 5844 5846 5848 5850 5852 5854 5856 5858 5859 5861 5863 5864 5866 5867 5869 5870 5871 5872 5873 5875 5876 5877 5877 5878 5879 5880 5881 5881 5881 5881 5882 5883 5884 5885 5885 5886 5886 5886 5886 5886 5886 5886 5886 5886 5886 5886 5886 5886 5886
5729 5732 5735 5739 5743 5746 5750 5754 5758 5762 5765 5769 5773 5776 5779 5782 5784 5787 5789 5793 5796 5799 5802 5804 5807 5809 5811 5814 5816 5818 5821 5823 5826 5828 5830 5833 5836 5838 5840 5843 5845 5847 5849 5851 5853 5855 5856 5858 5859 5861 5863 5865 5866 5867 5869 5870 5871 5872 5874 5875 5876 5876 5877 5878 5879 5880 5880 5880 5881 5881 5882 5883 5884 5885 5885 5885 5885 5885 5885 5885 5885 5886 5886 5886 5886 5886 5886 5886
5726 5729 5733 5736 5739 5743 5747 5751 5755 5759 5763 5767 5770 5774 5777 5780 5783 5785 5788 5791 5794 5797 5800 5803 5805 5807 5810 5812 5815 5817 5819 5821 5823 5826 5829 5832 5834 5836 5839 5841 5843 5846 5848 5850 5852 5854 5855 5857 5859 5860 5861 5863 5864 5866 5867 5869 5870 5871 5873 5874 5874 5875 5876 5877 5878 5878 5879 5880 5880 5880 5881 5882 5883 5884 5884 5884 5884 5884 5884 5884 5885 5885 5885 5885 5885 5885 5885 5885
5724 5727 5730 5733 5737 5740 5744 5748 5753 5757 5760 5764 5768 5772 5775 5778 5781 5784 5787 5790 5793 5796 5798 5801 5803 5806 5808 5811 5813 5815 5817 5819 5822 5824 5827 5830 5832 5835 5837 5839 5842 5844 5846 5848 5850 5852 5854 5856 5857 5859 5860 5862 5863 5865 5866 5867 5868 5870 5872 5873 5873 5874 5875 5876 5877 5877 5878 5879 5879 5879 5880 5881 5882 5883 5883 5883 5882 5883 5883 5884 5884 5884 5884 5884 5884 5885 5885 5885
5721 5724 5728 5731 5734 5737 5741 5745 5750 5754 5758 5761 5765 5769 5772 5776 5779 5782 5785 5788 5791 5794 5797 5799 5802 5804 5806 5809 5811 5813 5816 5818 5820 5823 5825 5828 5831 5833 5836 5838 5840 5842 5845 5847 5849 5851 5853 5854 5856 5857 5859 5860 5862 5863 5864 5866 5867 5869 5870 5871 5871 5872 5874 5876 5876 5876 5877 5878 5878 5879 5879 5880 5881 5882 5882 5881 5881 5882 5882 5883 5883 5884 5884 5884 5884 5884 5884 5884
5718 5722 5725 5728 5731 5735 5738 5742 5747 5751 5755 5759 5762 5766 5770 5773 5776 5779 5782 5786 5789 5792 5795 5797 5800 5802 5804 5807 5809 5812 5814 5816 5819 5821 5824 5826 5829 5832 5834 5836 5839 5841 5843 5845 5847 5849 5852 5853 5855 5856 5858 5859 5861 5862 5863 5864 5866 5868 5869 5869 5870 5871 5873 5874 5875 5875 5876 5877 5877 5878 5878 5879 5880 5881 5881 5880 5880 5881 5881 5882 5882 5883 5883 5883 5883 5884 5884 5884
5715 5719 5722 5725 5729 5732 5736 5739 5744 5748 5752 5756 5759 5763 5767 5770 5774 5777 5780 5783 5787 5789 5792 5795 5798 5800 5803 5805 5807 5810 5813 5815 5817 5820 5822 5825 5827 5830 5833 5835 5837 5839 5842 5844 5846 5848 5850 5851 5853 5855 5857 5858 5860 5861 5862 5863 5865 5866 5868 5868 5868 5870 5871 5873 5874 5874 5875 5875 5876 5877 5877 5878 5879 5880 5880 5879 5880 5880 5881 5880 5881 5882 5883 5883 5883 5883 5883 5883
5712 5716 5719 5723 5726 5729 5733 5737 5741 5745 5749 5753 5756 5760 5763 5767 5771 5774 5777 5780 5784 5787 5790 5793 5796 5798 5801 5803 5806 5808 5811 5814 5816 5818 5821 5823 5826 5828 5831 5833 5835 5838 5840 5842 5844 5846 5848 5850 5852 5853 5855 5857 5858 5859 5860 5861 5863 5865 5866 5866 5867 5868 5870 5871 5872 5873 5874 5874 5875 5875 5876 5877 5878 5878 5879 5879 5879 5880 5880 5880 5880 5881 5881 5882 5882 5882 5883 5882
5709 5713 5716 5720 5723 5727 5730 5734 5738 5742 5746 5750 5753 5757 5760 5764 5768 5771 5774 5778 5781 5784 5787 5790 5793 5796 5799 5802 5804 5806 5809 5811 5814 5817 5819 5821 5824 5826 5829 5831 5833 5836 5838 5840 5842 5844 5846 5848 5850 5851 5853 5855 5856 5857 5858 5860 5862 5863 5864 5865 5866 5867 5868 5870 5871 5872 5873 5873 5873 5874 5874 5875 5877 5877 5878 5878 5878 5879 5880 5880 5880 5881 5881 5881 5882 5882 5882 5882
5705 5709 5713 5717 5720 5724 5727 5731 5735 5739 5743 5747 5750 5753 5757 5761 5765 5769 5772 5775 5779 5782 5785 5788 5791 5794 5797 5800 5802 5804 5807 5809 5812 5815 5817 5819 5822 5825 5827 5829 5831 5834 5836 5838 5840 5842 5844 5846 5848 5849 5851 5852 5853 5855 5856 5859 5860 5861 5861 5863 5865 5866 5867 5868 5869 5870 5871 5872 5872 5872 5873 5874 5875 5876 5876 5877 5878 5878 5879 5879 5879 5880 5880 5880 5881 5881 5881 5881
5702 5706 5709 5713 5717 5721 5725 5728 5732 5736 5740 5744 5747 5750 5754 5758 5762 5766 5770 5773 5776 5780 5783 5785 5789 5791 5794 5797 5799 5802 5805 5807 5810 5812 5815 5817 5820 5823 5825 5827 5830 5831 5834 5836 5838 5840 5842 5844 5846 5847 5849 5850 5851 5852 5854 5857 5858 5858 5860 5862 5863 5864 5865 5867 5868 5869 5870 5870 5871 5871 5872 5873 5874 5875 5875 5876 5876 5877 5877 5878 5879 5879 5879 5879 5879 5880 5880 5880
5699 5702 5706 5709 5714 5718 5722 5725 5728 5732 5736 5740 5744 5747 5751 5755 5760 5764 5767 5771 5774 5777 5780 5783 5786 5789 5792 5794 5797 5800 5803 5805 5808 5810 5813 5815 5818 5820 5823 5825 5827 5829 5832 5834 5836 5838 5840 5842 5843 5845 5847 5848 5849 5850 5853 5855 5856 5857 5858 5860 5862 5863 5864 5865 5866 5867 5868 5869 5869 5870 5871 5872 5873 5873 5874 5874 5875 5876 5876 5877 5878 5878 5878 5878 5878 5878 5878 5878
5696 5699 5702 5706 5710 5715 5718 5722 5725 5729 5733 5736 5740 5744 5748 5752 5756 5761 5765 5768 5771 5775 5777 5780 5783 5786 5789 5792 5794 5798 5800 5803 5806 5808 5811 5813 5815 5818 5820 5823 5825 5827 5830 5832 5834 5836 5837 5839 5841 5843 5844 5845 5847 5848 5851 5852 5854 5855 5856 5858 5860 5861 5862 5864 5865 5866 5866 5867 5868 5868 5869 5870 5871 5872 5872 5873 5874 5874 5875 5876 5876 5877 5877 5877 5877 5877 5877 5877
5692 5696 5699 5702 5707 5711 5715 5719 5722 5725 5729 5733 5737 5741 5744 5749 5753 5758 5762 5765 5768 5771 5775 5778 5781 5784 5787 5790 5792 5795 5798 5801 5803 5806 5808 5811 5813 5815 5818 5820 5822 5825 5827 5829 5832 5833 5835 5837 5839 5840 5842 5843 5844 5846 5848 5850 5851 5853 5855 5856 5858 5859 5860 5862 5863 5864 5865 5865 5866 5867 5868 5869 5870 5870 5871 5872 5872 5873 5874 5874 5875 5875 5875 5876 5876 5876 5876 5876
5688 5692 5696 5699 5703 5707 5711 5715 5718 5722 5725 5729 5733 5737 5741 5746 5750 5755 5759 5762 5765 5769 5772 5775 5778 5782 5785 5787 5790 5793 5796 5798 5800 5803 5806 5808 5810 5813 5815 5817 5820 5822 5825 5827 5829 5831 5832 5834 5836 5838 5839 5840 5842 5844 5846 5848 5849 5851 5853 5854 5856 5857 5859 5860 5861 5862 5863 5864 5865 5866 5867 5867 5868 5868 5869 5870 5871 5872 5873 5873 5873 5874 5874 5874 5874 5874 5874 5874
5684 5688 5692 5695 5699 5703 5707 5711 5715 5718 5722 5725 5729 5733 5737 5742 5747 5751 5755 5759 5762 5766 5769 5772 5776 5779 5781 5785 5788 5791 5793 5795 5798 5800 5803 5805 5808 5810 5812 5815 5817 5820 5822 5824 5826 5828 5830 5832 5834 5835 5837 5838 5840 5841 5843 5846 5848 5850 5851 5852 5854 5855 5857 5858 5859 5860 5861 5862 5863 5864 5865 5866 5866 5867 5868 5868 5869 5870 5871 5872 5872 5872 5873 5873 5873 5873 5873 5873
5680 5684 5688 5691 5695 5699 5703 5707 5711 5714 5718 5722 5725 5729 5734 5738 5743 5748 5752 5755 5760 5763 5766 5769 5773 5776 5779 5783 5786 5788 5790 5793 5795 5797 5800 5802 5805 5807 5810 5812 5815 5817 5819 5822 5824 5826 5827 5829 5831 5833 5834 5836 5838 5840 5842 5845 5846 5847 5849 5850 5852 5853 5855 5856 5857 5858 5859 5860 5861 5862 5864 5864 5864 5865 5866 5867 5868 5869 5870 5870 5871 5871 5871 5871 5871 5871 5871 5871
5676 5680 5683 5687 5691 5695 5699 5703 5707 5710 5714 5718 5723 5727 5731 5735 5740 5744 5748 5752 5757 5760 5763 5767 5771 5774 5778 5781 5783 5785 5788 5790 5792 5795 5797 5800 5802 5805 5807 5809 5812 5814 5817 5819 5821 5823 5825 5827 5829 5831 5833 5835 5837 5839 5841 5842 5843 5844 5846 5847 5849 5851 5853 5854 5855 5856 5856 5857 5859 5860 5862 5862 5863 5864 5864 5864 5866 5867 5868 5868 5869 5869 5870 5870 5870 5870 5870 5870
5672 5675 5679 5682 5686 5691 5695 5699 5703 5707 5711 5715 5720 5724 5728 5732 5737 5741 5746 5750 5754 5757 5761 5765 5769 5772 5775 5778 5780 5782 5785 5787 5790 5792 5794 5797 5799 5802 5804 5807 5809 5812 5814 5816 5818 5820 5822 5824 5827 5829 5831 5833 5834 5836 5837 5838 5840 5842 5843 5845 5847 5849 5850 5851 5852 5853 5854 5855 5856 5857 5859 5860 5861 5862 5862 5862 5864 5865 5866 5866 5867 5867 5868 5868 5868 5868 5868 5868
5667 5671 5675 5678 5682 5687 5691 5695 5699 5704 5708 5713 5717 5722 5727 5732 5736 5740 5744 5747 5750 5753 5757 5760 5764 5767 5771 5774 5776 5779 5782 5784 5787 5789 5792 5794 5797 5799 5802 5804 5807 5809 5811 5813 5815 5818 5820 5822 5824 5826 5828 5829 5831 5832 5834 5835 5838 5840 5841 5843 5845 5846 5848 5849 5849 5850 5851 5852 5854 5855 5856 5858 5859 5859 5860 5860 5862 5864 5864 5864 5865 5865 5866 5866 5866 5866 5866 5866
5663 5667 5670 5674 5678 5682 5687 5691 5696 5701 5706 5710 5715 5720 5725 5729 5733 5737 5740 5742 5746 5749 5752 5756 5760 5763 5767 5770 5773 5776 5779 5782 5784 5786 5789 5791 5794 5797 5799 5802 5804 5806 5808 5811 5813 5815 5817 5820 5821 5823 5824 5826 5828 5829 5831 5833 5835 5837 5839 5841 5842 5844 5845 5846 5847 5847 5848 5850 5852 5851 5853 5856 5857 5857 5858 5858 5860 5862 5861 5862 5863 5863 5864 5864 5864 5864 5864 5864
5658 5662 5666 5670 5674 5678 5683 5688 5693 5698 5703 5708 5713 5717 5721 5724 5728 5731 5733 5736 5740 5744 5748 5752 5755 5759 5763 5767 5770 5773 5776 5779 5781 5784 5786 5789 5791 5794 5796 5799 5801 5803 5806 5808 5810 5812 5815 5817 5818 5819 5822 5823 5825 5827 5828 5830 5833 5835 5836 5838 5839 5841 5842 5843 5844 5845 5846 5847 5848 5848 5849 5853 5854 5855 5856 5857 5858 5860 5859 5859 5860 5861 5861 5861 5861 5862 5862 5862
5654 5658 5662 5665 5669 5674 5679 5684 5689 5695 5700 5704 5708 5712 5716 5720 5722 5725 5728 5731 5735 5739 5743 5747 5751 5755 5759 5763 5767 5770 5772 5775 5778 5781 5783 5786 5788 5791 5793 5795 5797 5800 5802 5805 5807 5809 5811 5812 5814 5816 5818 5820 5822 5824 5826 5828 5830 5832 5833 5835 5837 5838 5839 5840 5842 5843 5844 5844 5845 5846 5846 5849 5852 5852 5854 5855 5856 5857 5857 5857 5858 5859 5859 5859 5859 5859 5859 5860
5650 5654 5658 5662 5666 5670 5675 5681 5686 5691 5695 5700 5704 5707 5711 5715 5718 5720 5723 5726 5729 5733 5737 5742 5747 5751 5755 5760 5763 5766 5769 5772 5774 5777 5780 5782 5784 5787 5789 5791 5794 5797 5799 5801 5803 5805 5807 5809 5811 5813 5815 5817 5819 5821 5823 5825 5827 5829 5831 5832 5834 5835 5836 5837 5839 5840 5841 5841 5843 5843 5842 5845 5849 5850 5851 5853 5853 5854 5854 5855 5856 5857 5857 5857 5857 5857 5857 5857
5646 5650 5654 5658 5662 5666 5672 5677 5682 5686 5691 5696 5699 5703 5707 5710 5713 5715 5718 5721 5723 5728 5733 5738 5742 5746 5751 5755 5759 5762 5764 5768 5771 5774 5776 5778 5781 5783 5785 5788 5791 5793 5795 5797 5799 5802 5804 5806 5808 5810 5812 5814 5816 5818 5820 5822 5824 5826 5828 5829 5830 5832 5833 5834 5835 5836 5837 5838 5840 5841 5839 5840 5845 5848 5849 5850 5850 5850 5852 5853 5854 5855 5854 5854 5855 5854 5854 5854
5642 5646 5650 5654 5658 5663 5668 5673 5677 5683 5688 5691 5695 5699 5702 5705 5707 5711 5714 5715 5717 5724 5729 5734 5738 5743 5747 5750 5754 5758 5761 5765 5768 5770 5772 5775 5777 5780 5782 5785 5788 5789 5792 5794 5796 5799 5802 5803 5805 5807 5809 5811 5813 5815 5817 5819 5820 5822 5824 5826 5827 5828 5830 5831 5832 5833 5834 5835 5837 5838 5837 5835 5839 5845 5847 5847 5847 5847 5849 5851 5852 5852 5852 5852 5852 5851 5851 5851
5639 5642 5646 5650 5655 5659 5664 5669 5675 5680 5682 5685 5690 5693 5696 5700 5702 5706 5708 5707 5712 5721 5725 5730 5736 5740 5742 5745 5750 5754 5757 5762 5764 5766 5769 5772 5774 5777 5779 5782 5784 5786 5788 5791 5794 5797 5799 5800 5802 5804 5806 5808 5810 5812 5813 5815 5816 5818 5820 5822 5823 5825 5826 5827 5828 5829 5830 5831 5833 5835 5835 5832 5833 5841 5844 5844 5844 5845 5846 5848 5848 5849 5850 5849 5849 5848 5848 5848
5635 5639 5643 5647 5651 5656 5660 5666 5671 5673 5676 5681 5685 5687 5691 5694 5696 5699 5699 5700 5709 5717 5722 5727 5732 5734 5737 5741 5746 5750 5754 5757 5759 5762 5766 5767 5770 5773 5776 5779 5780 5782 5785 5788 5790 5792 5794 5796 5798 5800 5802 5804 5806 5808 5809 5811 5812 5815 5817 5818 5820 5821 5822 5824 5824 5826 5826 5827 5829 5832 5833 5830 5828 5834 5839 5840 5841 5843 5844 5845 5845 5846 5846 5846 5846 5845 5844 5844
5631 5636 5640 5644 5649 5653 5658 5662 5665 5667 5672 5676 5679 5682 5685 5687 5689 5690 5690 5696 5707 5714 5718 5723 5727 5730 5734 5738 5742 5746 5749 5752 5755 5758 5760 5762 5766 5769 5771 5774 5776 5778 5781 5784 5786 5788 5791 5792 5794 5796 5798 5800 5803 5804 5805 5807 5808 5811 5812 5814 5815 5816 5818 5820 5821 5822 5822 5823 5826 5828 5830 5829 5823 5825 5833 5836 5839 5840 5840 5841 5842 5842 5843 5843 5843 5842 5841 5841
5628 5633 5637 5642 5646 5650 5654 5657 5659 5663 5667 5670 5673 5676 5678 5680 5682 5682 5687 5700 5707 5708 5713 5718 5722 5727 5731 5735 5739 5742 5745 5747 5750 5752 5755 5758 5761 5764 5767 5769 5771 5774 5776 5779 5782 5785 5787 5789 5791 5793 5796 5797 5799 5801 5802 5803 5804 5806 5807 5809 5811 5812 5814 5816 5817 5819 5818 5820 5822 5822 5826 5827 5821 5821 5827 5830 5833 5836 5836 5837 5838 5838 5838 5839 5839 5839 5839 5839
5625 5630 5634 5638 5641 5645 5648 5651 5655 5659 5662 5665 5668 5670 5672 5673 5673 5676 5690 5702 5701 5701 5710 5715 5719 5724 5728 5731 5734 5737 5740 5743 5746 5749 5751 5754 5757 5760 5763 5766 5769 5771 5773 5776 5779 5781 5784 5786 5788 5790 5792 5794 5795 5796 5797 5798 5800 5801 5803 5804 5806 5808 5810 5811 5813 5814 5814 5817 5818 5818 5821 5822 5819 5820 5822 5823 5827 5831 5831 5831 5833 5833 5833 5833 5834 5834 5835 5834
5622 5626 5630 5634 5637 5640 5643 5646 5651 5653 5656 5660 5662 5664 5666 5665 5668 5680 5693 5697 5693 5698 5708 5711 5715 5720 5722 5724 5727 5731 5735 5738 5742 5745 5747 5750 5753 5756 5759 5762 5765 5768 5771 5774 5775 5777 5780 5781 5784 5786 5787 5789 5790 5792 5793 5795 5796 5797 5798 5800 5801 5804 5805 5807 5808 5809 5811 5813 5813 5813 5815 5816 5817 5819 5819 5819 5822 5825 5825 5825 5825 5826 5827 5828 5829 5829 5830 5829
5619 5623 5626 5630 5633 5636 5639 5643 5646 5648 5651 5653 5655 5658 5658 5660 5672 5685 5690 5690 5690 5696 5703 5706 5709 5713 5715 5719 5723 5726 5729 5732 5736 5740 5741 5744 5747 5750 5754 5757 5760 5763 5767 5768 5769 5772 5774 5776 5780 5782 5783 5785 5786 5787 5788 5790 5791 5791 5793 5794 5796 5799 5800 5802 5803 5804 5807 5808 5807 5809 5810 5811 5814 5817 5817 5817 5818 5819 5819 5819 5818 5818 5820 5822 5823 5824 5823 5823
5615 5619 5622 5625 5628 5632 5636 5638 5641 5643 5645 5647 5650 5651 5652 5661 5676 5683 5683 5684 5688 5692 5698 5701 5703 5706 5709 5713 5716 5720 5723 5726 5730 5733 5735 5738 5742 5746 5750 5753 5756 5759 5762 5764 5765 5767 5769 5772 5776 5777 5778 5780 5781 5781 5782 5783 5785 5786 5788 5790 5793 5796 5796 5795 5797 5799 5802 5801 5802 5804 5805 5807 5811 5812 5813 5814 5814 5813 5813 5813 5813 5813 5813 5814 5816 5817 5817 5816
5611 5614 5617 5621 5625 5629 5632 5634 5637 5638 5639 5642 5643 5645 5654 5667 5675 5676 5676 5679 5684 5689 5691 5693 5696 5699 5702 5706 5710 5713 5717 5720 5724 5726 5730 5734 5737 5741 5744 5748 5752 5755 5757 5760 5761 5762 5764 5768 5771 5772 5773 5775 5775 5776 5777 5778 5780 5782 5784 5787 5791 5791 5790 5790 5792 5794 5795 5794 5797 5800 5801 5805 5807 5807 5809 5810 5810 5809 5808 5808 5809 5808 5806 5806 5808 5810 5810 5810
5606 5609 5612 5617 5622 5625 5627 5631 5632 5632 5635 5636 5638 5645 5657 5664 5665 5666 5670 5674 5679 5682 5683 5685 5690 5694 5697 5701 5705 5708 5712 5714 5716 5720 5724 5728 5730 5735 5740 5743 5746 5749 5753 5754 5755 5757 5759 5761 5763 5765 5767 5768 5769 5770 5771 5773 5776 5778 5781 5784 5785 5783 5783 5785 5786 5788 5789 5789 5793 5797 5798 5802 5803 5802 5804 5806 5805 5805 5805 5804 5804 5803 5802 5800 5800 5801 5802 5803
5601 5605 5608 5613 5617 5619 5622 5625 5625 5628 5630 5631 5636 5646 5652 5654 5656 5661 5665 5668 5672 5675 5676 5679 5684 5688 5692 5696 5701 5704 5707 5708 5711 5715 5719 5721 5725 5732 5736 5738 5742 5745 5747 5748 5748 5750 5753 5754 5755 5758 5760 5761 5763 5763 5765 5769 5771 5773 5776 5778 5777 5776 5778 5780 5780 5782 5784 5784 5787 5792 5793 5796 5798 5798 5800 5802 5801 5800 5800 5800 5800 5799 5798 5797 5795 5794 5794 5795
5596 5600 5604 5608 5611 5613 5616 5618 5621 5623 5624 5627 5635 5641 5644 5648 5652 5655 5659 5663 5666 5669 5671 5673 5678 5683 5686 5691 5696 5699 5701 5704 5707 5710 5713 5717 5722 5729 5733 5734 5737 5740 5741 5742 5743 5744 5747 5748 5748 5751 5754 5755 5756 5758 5762 5766 5767 5768 5770 5771 5771 5772 5773 5775 5776 5777 5780 5780 5781 5785 5786 5788 5793 5796 5796 5796 5797 5796 5795 5795 5795 5794 5793 5793 5792 5791 5790 5790
5592 5596 5599 5604 5607 5608 5610 5614 5616 5615 5617 5625 5633 5636 5639 5643 5646 5649 5654 5657 5661 5664 5666 5668 5672 5677 5681 5685 5689 5691 5695 5698 5702 5705 5708 5712 5719 5724 5728 5730 5733 5735 5736 5735 5735 5737 5739 5741 5743 5745 5747 5748 5752 5756 5760 5761 5761 5762 5763 5764 5767 5768 5768 5770 5771 5772 5774 5774 5775 5777 5777 5781 5789 5793 5792 5792 5792 5791 5790 5790 5789 5788 5787 5787 5788 5787 5786 5786
5588 5592 5595 5600 5603 5604 5605 5608 5610 5609 5614 5622 5628 5631 5635 5638 5642 5645 5648 5651 5655 5658 5661 5663 5667 5671 5676 5679 5682 5685 5689 5692 5695 5698 5701 5707 5712 5718 5723 5726 5727 5728 5727 5726 5728 5731 5733 5735 5737 5738 5739 5743 5749 5752 5753 5753 5754 5755 5756 5758 5762 5763 5763 5763 5763 5766 5768 5768 5770 5770 5769 5775 5784 5787 5787 5787 5786 5786 5786 5784 5783 5782 5781 5782 5783 5782 5781 5781
5584 5587 5591 5595 5598 5600 5600 5601 5603 5606 5610 5617 5621 5625 5630 5633 5637 5640 5642 5646 5650 5653 5655 5658 5661 5665 5669 5673 5677 5680 5682 5686 5689 5692 5696 5702 5708 5713 5717 5718 5718 5719 5719 5719 5723 5726 5727 5727 5729 5731 5734 5739 5742 5743 5744 5746 5747 5748 5749 5753 5756 5755 5756 5755 5755 5759 5761 5760 5764 5764 5762 5769 5779 5781 5782 5783 5781 5781 5780 5778 5778 5777 5777 5777 5777 5776 5776 5776
5578 5581 5586 5590 5593 5594 5594 5594 5598 5602 5607 5612 5616 5620 5624 5627 5630 5634 5637 5641 5644 5647 5650 5652 5655 5659 5662 5667 5671 5674 5677 5680 5683 5687 5692 5697 5702 5707 5709 5709 5710 5712 5712 5713 5716 5718 5718 5717 5720 5723 5726 5730 5732 5733 5735 5738 5739 5740 5743 5747 5748 5748 5749 5748 5748 5752 5752 5753 5758 5757 5755 5765 5775 5776 5777 5776 5774 5773 5773 5772 5773 5773 5772 5771 5769 5769 5769 5769
5571 5575 5580 5582 5584 5586 5588 5590 5594 5599 5603 5608 5611 5614 5618 5622 5625 5629 5632 5635 5638 5641 5644 5647 5649 5652 5656 5661 5665 5668 5672 5674 5676 5682 5687 5690 5696 5700 5701 5701 5703 5705 5707 5709 5711 5711 5709 5709 5713 5715 5716 5719 5721 5723 5727 5730 5731 5733 5737 5739 5740 5741 5741 5739 5740 5742 5741 5747 5753 5749 5748 5762 5771 5770 5770 5768 5766 5766 5766 5767 5767 5766 5765 5764 5763 5763 5762 5761
5564 5568 5572 5574 5577 5580 5584 5587 5591 5594 5598 5602 5606 5609 5613 5616 5620 5624 5627 5629 5632 5635 5638 5641 5643 5646 5650 5654 5658 5662 5665 5668 5672 5677 5680 5684 5690 5693 5693 5694 5696 5698 5702 5703 5704 5703 5702 5703 5706 5706 5706 5710 5713 5718 5724 5727 5726 5726 5730 5733 5734 5734 5733 5733 5735 5733 5733 5742 5746 5740 5744 5758 5763 5762 5762 5760 5759 5759 5758 5759 5760 5758 5757 5758 5758 5757 5755 5753
5559 5562 5565 5568 5571 5575 5579 5582 5586 5589 5592 5596 5600 5604 5607 5611 5615 5618 5621 5623 5627 5630 5633 5636 5639 5642 5645 5648 5652 5656 5659 5663 5666 5670 5673 5678 5682 5685 5686 5687 5689 5692 5695 5696 5695 5695 5694 5695 5698 5699 5700 5704 5710 5715 5719 5719 5717 5718 5723 5726 5726 5726 5726 5727 5726 5724 5729 5737 5735 5733 5741 5748 5752 5754 5754 5754 5754 5753 5751 5751 5752 5750 5748 5749 5749 5749 5749 5748
5554 5557 5560 5562 5565 5569 5572 5577 5581 5585 5589 5591 5594 5598 5602 5605 5609 5612 5614 5618 5622 5625 5628 5630 5634 5637 5640 5644 5648 5651 5654 5658 5660 5664 5668 5671 5674 5677 5679 5681 5682 5684 5687 5688 5688 5688 5687 5688 5691 5694 5695 5700 5706 5708 5707 5707 5707 5710 5714 5716 5716 5717 5718 5717 5715 5719 5728 5725 5721 5730 5737 5735 5741 5748 5747 5748 5749 5746 5746 5746 5745 5743 5740 5740 5741 5741 5742 5742
5549 5552 5554 5556 5559 5563 5567 5572 5576 5580 5583 5586 5589 5593 5596 5599 5602 5605 5610 5613 5616 5619 5621 5624 5628 5633 5637 5640 5641 5644 5648 5651 5654 5659 5663 5665 5667 5669 5671 5674 5675 5677 5680 5680 5680 5681 5681 5682 5687 5689 5690 5695 5700 5699 5698 5699 5701 5703 5706 5707 5709 5710 5709 5708 5709 5717 5721 5713 5713 5729 5731 5724 5733 5741 5739 5741 5742 5738 5740 5741 5737 5736 5735 5733 5734 5734 5734 5734
5544 5547 5549 5551 5555 5558 5562 5566 5569 5572 5575 5579 5583 5587 5591 5594 5598 5601 5604 5606 5609 5613 5616 5619 5624 5629 5632 5633 5634 5637 5640 5644 5650 5655 5657 5659 5661 5663 5665 5667 5668 5671 5673 5673 5673 5674 5674 5676 5682 5684 5683 5688 5693 5692 5691 5693 5693 5694 5697 5699 5701 5702 5702 5703 5705 5710 5711 5705 5708 5721 5719 5716 5726 5731 5731 5736 5735 5732 5734 5733 5730 5730 5729 5727 5726 5725 5725 5725
5539 5541 5543 5546 5549 5553 5556 5559 5562 5565 5568 5571 5576 5582 5587 5591 5593 5596 5598 5600 5603 5608 5611 5615 5621 5624 5626 5627 5627 5629 5634 5639 5644 5648 5651 5653 5655 5657 5658 5659 5661 5664 5665 5666 5667 5667 5667 5671 5676 5678 5676 5679 5685 5686 5684 5685 5685 5685 5688 5691 5694 5695 5695 5696 5698 5702 5702 5699 5703 5710 5708 5710 5720 5724 5725 5729 5728 5725 5726 5725 5724 5723 5721 5718 5717 5717 5718 5717
5533 5536 5538 5541 5544 5547 5549 5552 5555 5558 5561 5565 5572 5578 5581 5585 5588 5589 5591 5594 5598 5602 5606 5612 5616 5617 5618 5619 5620 5625 5632 5635 5637 5641 5644 5645 5646 5648 5649 5649 5653 5655 5657 5659 5660 5660 5662 5664 5669 5671 5667 5670 5679 5679 5675 5677 5678 5676 5678 5683 5687 5688 5688 5689 5692 5695 5695 5695 5698 5700 5698 5705 5715 5717 5718 5720 5717 5716 5717 5717 5716 5715 5712 5710 5710 5712 5713 5709
5527 5530 5533 5535 5537 5540 5543 5547 5549 5552 5557 5563 5568 5571 5573 5576 5579 5581 5584 5589 5594 5598 5602 5606 5607 5608 5608 5611 5618 5626 5629 5627 5629 5632 5633 5635 5637 5639 5640 5642 5645 5648 5649 5652 5652 5654 5656 5657 5662 5663 5660 5665 5673 5670 5669 5671 5666 5663 5672 5680 5682 5682 5683 5683 5685 5688 5690 5689 5690 5689 5692 5702 5706 5704 5706 5709 5707 5706 5708 5709 5707 5706 5704 5703 5705 5708 5706 5702